DW2103 Weather Reports


time (UTC)temp
F
wind
direction
speed
knots
gust
knots
rain 1hr
in
rain 24hr
in
rain mn
in
humidity
%
barometer
mb
20260506184540 74 56 0.9 0.0 0.00 0.00 0.00 35 1015.4
20260506183038 73 69 0.9 0.0 0.00 0.00 0.00 36 1016.0
20260506181537 71 144 0.9 0.0 0.00 0.00 0.00 40 1015.8
20260506180043 71 255 0.9 0.0 0.00 0.00 0.00 42 1016.2
20260506174531 70 117 0.9 0.0 0.00 0.00 0.00 44 1016.6
20260506173026 69 163 0.9 0.0 0.00 0.00 0.00 45 1016.6
20260506171537 67 156 0.0 0.0 0.00 0.00 0.00 45 1016.9
20260506170019 65 156 0.9 0.0 0.00 0.00 0.00 46 1016.8
20260506164516 63 156 0.9 0.0 0.00 0.00 0.00 53 1017.1
20260506163019 61 90 0.0 0.0 0.00 0.00 0.00 56 1017.4
20260506161512 58 126 0.0 0.0 0.00 0.00 0.00 61 1017.7
20260506160007 57 88 0.9 0.0 0.00 0.00 0.00 61 1018.2
20260506154600 56 134 0.0 0.0 0.00 0.00 0.00 63 1018.2
20260506153055 54 26 0.0 0.0 0.00 0.00 0.00 64 1018.5
20260506151552 53 343 0.0 0.0 0.00 0.00 0.00 66 1018.9
20260506150054 50 343 0.0 0.0 0.00 0.00 0.00 73 1018.1
20260506144552 47 344 0.0 0.0 0.00 0.00 0.00 79 1018.7
20260506143048 45 344 0.0 0.0 0.00 0.00 0.00 85 1018.8
20260506141547 43 344 0.0 0.0 0.00 0.00 0.00 86 1019.2
20260506140048 42 344 0.0 0.0 0.00 0.00 0.00 85 1018.5
20260506134611 42 344 0.0 0.0 0.00 0.00 0.00 84 1018.5
20260506133045 42 344 0.0 0.0 0.00 0.00 0.00 83 1018.4
20260506131601 42 344 0.0 0.0 0.00 0.00 0.00 82 1018.3
20260506130044 42 343 0.0 0.0 0.00 0.00 0.00 82 1015.9
20260506124540 42 344 0.0 0.0 0.00 0.00 0.00 82 1015.7
20260506123044 43 344 0.0 0.0 0.00 0.00 0.00 82 1015.4
20260506121538 43 344 0.0 0.0 0.00 0.00 0.00 82 1015.3
20260506120035 43 343 0.0 0.0 0.00 0.00 0.00 81 1014.9
20260506114543 44 344 0.0 0.0 0.00 0.00 0.00 80 1014.5
20260506113037 44 344 0.0 0.0 0.00 0.00 0.00 79 1014.4
20260506111533 44 344 0.0 0.0 0.00 0.00 0.00 80 1014.3
20260506110032 43 344 0.0 0.0 0.00 0.00 0.00 82 1014.4
20260506104531 43 343 0.0 0.0 0.00 0.00 0.00 81 1014.3
20260506103032 44 344 0.0 0.0 0.00 0.00 0.00 80 1014.1
20260506101527 44 314 0.0 0.0 0.00 0.00 0.00 79 1013.9
20260506100032 45 314 0.0 0.0 0.00 0.00 0.00 79 1014.1
20260506094523 46 314 0.0 0.0 0.00 0.00 0.00 77 1013.5
20260506093020 47 314 0.0 0.0 0.00 0.00 0.00 75 1013.4
20260506091519 47 314 0.0 0.0 0.00 0.00 0.00 75 1013.3
20260506090017 47 314 0.0 0.0 0.00 0.00 0.00 75 1013.6
20260506084517 47 299 0.9 0.0 0.00 0.00 0.00 75 1013.6
20260506083017 47 264 0.0 0.0 0.00 0.00 0.00 75 1013.5
20260506081520 48 264 0.0 0.0 0.00 0.00 0.00 74 1013.7
20260506073010 49 273 0.9 0.0 0.00 0.00 0.00 72 1014.1
20260506071502 51 350 0.0 0.0 0.00 0.00 0.00 68 1013.4
20260506070126 52 275 0.9 0.0 0.00 0.00 0.00 67 1013.4
20260506061558 54 255 2.6 0.0 0.00 0.00 0.36 63 1013.1
20260506050104 52 248 0.0 0.0 0.00 0.00 0.36 70 1013.2
20260506044557 52 245 0.0 0.0 0.00 0.00 0.36 67 1013.2
20260506043057 53 245 0.0 0.0 0.00 0.00 0.36 66 1012.7
20260506041602 53 215 0.0 0.0 0.00 0.00 0.36 64 1012.3
20260506040053 54 215 0.0 0.0 0.00 0.00 0.36 63 1012.6
20260506034559 54 199 0.0 0.0 0.00 0.00 0.36 62 1012.0
20260506033052 56 191 0.0 0.0 0.00 0.00 0.36 59 1011.5
20260506031552 57 30 0.0 0.0 0.00 0.00 0.36 58 1011.0
20260506030053 58 30 0.0 0.0 0.00 0.00 0.36 54 1011.1
20260506024559 58 355 0.0 0.0 0.00 0.00 0.36 53 1011.0
20260506023052 58 9 0.9 0.0 0.00 0.00 0.36 54 1010.9
20260506021550 59 244 0.0 0.0 0.00 0.00 0.36 56 1010.2
20260506020105 60 244 0.0 0.0 0.00 0.00 0.36 54 1009.9
20260506014606 61 248 1.7 0.0 0.00 0.00 0.36 49 1009.9
20260506013048 62 248 1.7 0.0 0.00 0.00 0.36 47 1009.6
20260506011610 65 247 1.7 0.0 0.00 0.00 0.36 45 1009.2
20260506010048 70 242 0.9 0.0 0.00 0.00 0.36 38 1008.1
20260506004600 70 170 0.9 0.0 0.00 0.00 0.36 38 1008.2
20260506003045 70 161 0.9 0.0 0.00 0.00 0.36 38 1008.4
20260506001545 71 172 0.9 0.0 0.00 0.00 0.36 37 1008.3
20260506000110 71 250 0.0 0.0 0.00 0.00 0.36 38 1008.2
20260505234547 71 239 0.9 0.0 0.00 0.00 0.36 37 1008.8
20260505233040 71 195 0.9 0.0 0.00 0.00 0.36 39 1008.7
20260505231537 70 150 0.9 0.0 0.00 0.00 0.36 39 1008.9
20260505230054 69 79 0.9 0.0 0.00 0.00 0.36 40 1009.0
20260505224539 69 153 0.0 0.0 0.00 0.00 0.36 43 1009.4
20260505223032 69 142 0.9 0.0 0.00 0.00 0.36 43 1009.6
20260505221529 68 140 0.9 0.0 0.00 0.00 0.36 44 1009.7
20260505220025 66 176 0.0 0.0 0.00 0.00 0.36 46 1010.1
20260505214523 65 180 0.9 0.0 0.00 0.00 0.36 48 1010.6
20260505213024 64 157 0.9 0.0 0.00 0.00 0.36 52 1011.1
20260505211526 63 263 0.9 0.0 0.00 0.00 0.36 53 1011.4
20260505210017 63 201 0.9 0.0 0.00 0.00 0.36 54 1011.2
20260505204513 61 261 0.9 0.0 0.00 0.00 0.36 57 1011.6
20260505203010 60 132 0.9 0.0 0.00 0.00 0.36 59 1011.9
20260505201505 58 177 0.9 0.0 0.00 0.00 0.36 62 1012.6
20260505200003 57 182 0.9 0.0 0.00 0.00 0.36 60 1012.9
20260505194619 56 184 0.9 0.0 0.00 0.00 0.36 63 1012.8
20260505193105 55 150 0.9 0.0 0.00 0.00 0.36 64 1013.2
20260505191607 55 177 0.9 0.0 0.00 0.00 0.36 65 1013.1
20260505190055 55 206 0.9 0.0 0.00 0.00 0.36 66 1013.1